| time (UTC) | temp F | wind direction | speed knots | gust knots | rain 1hr in | rain 24hr in | rain mn in | humidity % | barometer mb |
| 20260903020015 | 66 | 0.0 | 0.0 | 0.00 | 0.29 | 0.29 | 81 | 1019.3 | |
| 20260903013022 | 66 | 0.0 | 1.7 | 0.00 | 0.29 | 0.29 | 81 | 1019.1 | |
| 20260903010015 | 66 | 0.0 | 1.7 | 0.00 | 0.29 | 0.29 | 81 | 1019.1 | |
| 20260903003015 | 66 | 0.0 | 0.9 | 0.00 | 0.29 | 0.29 | 81 | 1019.0 | |
| 20260903000036 | 66 | 0.0 | 0.9 | 0.00 | 0.29 | 0.29 | 81 | 1019.1 | |
| 20260902233015 | 66 | 0.0 | 2.6 | 0.00 | 0.29 | 0.29 | 81 | 1018.7 | |
| 20260902230058 | 66 | 0.0 | 0.0 | 0.00 | 0.29 | 0.29 | 81 | 1019.0 | |
| 20260902223015 | 66 | 0.0 | 1.7 | 0.00 | 0.42 | 0.29 | 80 | 1019.3 | |
| 20260902220015 | 67 | 0.0 | 0.9 | 0.00 | 0.42 | 0.29 | 79 | 1020.0 | |
| 20260902213015 | 68 | 0.0 | 1.7 | 0.00 | 0.43 | 0.29 | 79 | 1019.7 | |
| 20260902210015 | 68 | 0.0 | 0.0 | 0.00 | 0.43 | 0.29 | 79 | 1019.8 | |
| 20260902203035 | 68 | 0.0 | 2.6 | 0.00 | 0.43 | 0.29 | 79 | 1019.8 | |
| 20260902200015 | 67 | 0.0 | 1.7 | 0.00 | 0.43 | 0.29 | 80 | 1019.6 | |
| 20260902193015 | 66 | 0.0 | 1.7 | 0.00 | 0.43 | 0.29 | 81 | 1020.1 | |
| 20260902190017 | 65 | 0.0 | 1.7 | 0.13 | 0.43 | 0.29 | 82 | 1020.1 | |
| 20260902183017 | 65 | 0.0 | 0.9 | 0.29 | 0.43 | 0.29 | 82 | 1020.3 | |
| 20260902180015 | 65 | 0.0 | 1.7 | 0.16 | 0.30 | 0.16 | 80 | 1021.3 | |
| 20260902173022 | 66 | 0.0 | 1.7 | 0.00 | 0.14 | 0.00 | 76 | 1021.2 | |
| 20260902170038 | 66 | 0.0 | 3.5 | 0.00 | 0.14 | 0.00 | 75 | 1020.8 | |
| 20260902163017 | 67 | 0.0 | 1.7 | 0.00 | 0.14 | 0.00 | 74 | 1021.1 | |
| 20260902160017 | 67 | 0.0 | 0.9 | 0.00 | 0.14 | 0.00 | 74 | 1020.7 | |
| 20260902153017 | 67 | 0.0 | 0.9 | 0.00 | 0.14 | 0.00 | 75 | 1020.8 | |
| 20260902150018 | 66 | 0.0 | 1.7 | 0.00 | 0.14 | 0.00 | 76 | 1021.1 | |
| 20260902143017 | 66 | 0.0 | 1.7 | 0.00 | 0.14 | 0.00 | 76 | 1021.2 | |
| 20260902140018 | 65 | 0.0 | 0.9 | 0.00 | 0.14 | 0.00 | 78 | 1021.0 | |
| 20260902133016 | 64 | 0.0 | 0.0 | 0.00 | 0.17 | 0.00 | 79 | 1021.1 | |
| 20260902130016 | 63 | 0.0 | 0.9 | 0.00 | 0.23 | 0.00 | 80 | 1020.7 | |
| 20260902123016 | 63 | 0.0 | 1.7 | 0.00 | 0.29 | 0.00 | 82 | 1020.7 | |
| 20260902120017 | 62 | 0.0 | 1.7 | 0.00 | 0.34 | 0.00 | 83 | 1020.5 | |
| 20260902113018 | 62 | 0.0 | 0.9 | 0.00 | 0.34 | 0.00 | 83 | 1020.7 | |
| 20260902110016 | 62 | 0.0 | 0.9 | 0.00 | 0.35 | 0.00 | 83 | 1020.8 | |
| 20260902103016 | 63 | 0.0 | 0.9 | 0.00 | 0.36 | 0.00 | 83 | 1020.5 | |
| 20260902100016 | 63 | 0.0 | 0.9 | 0.00 | 0.36 | 0.00 | 83 | 1020.2 | |
| 20260902093036 | 63 | 0.0 | 0.0 | 0.00 | 0.36 | 0.00 | 83 | 1019.9 | |
| 20260902090036 | 63 | 0.0 | 0.9 | 0.00 | 0.36 | 0.00 | 83 | 1019.7 | |
| 20260902083016 | 63 | 0.0 | 0.9 | 0.00 | 0.36 | 0.00 | 83 | 1019.5 | |
| 20260902080017 | 62 | 0.0 | 0.9 | 0.00 | 0.41 | 0.00 | 83 | 1019.4 | |
| 20260902073017 | 63 | 0.0 | 0.9 | 0.00 | 0.41 | 0.00 | 83 | 1019.3 | |
| 20260902070017 | 63 | 0.0 | 0.9 | 0.00 | 0.41 | 0.00 | 83 | 1019.5 | |
| 20260902063015 | 63 | 0.0 | 1.7 | 0.00 | 0.41 | 0.00 | 83 | 1019.6 | |
| 20260902060015 | 63 | 0.0 | 0.9 | 0.00 | 0.41 | 0.00 | 82 | 1019.5 | |
| 20260902053016 | 64 | 0.0 | 0.9 | 0.00 | 0.43 | 0.00 | 82 | 1019.3 | |
| 20260902050015 | 64 | 0.0 | 0.9 | 0.00 | 0.43 | 0.00 | 82 | 1019.4 | |
| 20260902043015 | 64 | 0.0 | 1.7 | 0.00 | 0.45 | 0.00 | 82 | 1019.0 | |
| 20260902040015 | 64 | 0.0 | 1.7 | 0.00 | 0.46 | 0.46 | 82 | 1018.6 | |
| 20260902033016 | 64 | 0.0 | 1.7 | 0.00 | 0.47 | 0.46 | 82 | 1018.2 | |
| 20260902030016 | 64 | 0.0 | 1.7 | 0.00 | 0.47 | 0.46 | 82 | 1018.0 | |
| 20260902023023 | 65 | 0.0 | 2.6 | 0.00 | 0.48 | 0.46 | 81 | 1017.7 |